Elbow Lake, MN

12:44 AM CDT on August 29, 2016 (GMT -0500)
Elbow Lake

Weather History for KY63 - February, 2013

Change the Weather History Date:

Monday, February 18, 2013

  Actual Average (KFFM) Record (KFFM)
Temperature  
Mean Temperature 14 °F -  
Max Temperature 32 °F 25 °F 56 °F (1981)
Min Temperature -4 °F 6 °F -24 °F (1993)
Degree Days  
Heating Degree Days 51    
Moisture  
Dew Point 9 °F    
Average Humidity 85    
Maximum Humidity 100    
Minimum Humidity 72    
Precipitation  
Precipitation 0.00 in - - ()
Sea Level Pressure  
Sea Level Pressure 29.69 in    
Wind  
Wind Speed 18 mph (NW)    
Max Wind Speed 37 mph    
Max Gust Speed 45 mph    
Visibility 6 miles    
Events Snow    
Averages and records for this station are not official NWS values.
T = Trace of Precipitation, MM = Missing Value Source: NWS Daily Summary

Daily Weather History Graph

Daily Weather History Graph

Search for Another Location

Airport or City:

Trip Planner

Search our weather history database for the weather conditions in past years. The results will help you decide how hot, cold, wet, or windy it might be!

Date:

Astronomy

Feb. 18, 2013 Rise Set
Actual Time 7:21 AM CST 5:55 PM CST
Civil Twilight 6:50 AM CST 6:25 PM CST
Nautical Twilight 6:16 AM CST 7:00 PM CST
Astronomical Twilight 5:41 AM CST 7:35 PM CST
Moon 11:32 AM CST (2/18) 2:10 AM CST (2/18)
Length of Visible Light 11h 34m
Length of Day
10h 33m
First Quarter, 58% of the Moon is Illuminated
Feb 18
First Quarter
Feb 25
Full
Mar 4
Last Quarter
Mar 11
New
Mar 19
First Quarter

Hourly Weather History & Observations

Time (CST) Temp. Windchill Dew Point Humidity Pressure Visibility Wind Dir Wind Speed Gust Speed Precip Events Conditions
12:15 AM 30.2 °F 21.3 °F 26.6 °F 86% 29.49 in 10.0 mi SSE 10.4 mph - N/A   Overcast
12:35 AM 28.4 °F 20.4 °F 26.6 °F 93% 29.48 in 10.0 mi SE 8.1 mph - N/A   Overcast
1:15 AM 28.4 °F 22.2 °F 26.6 °F 93% 29.48 in 10.0 mi SSE 5.8 mph - N/A   Overcast
1:35 AM 28.4 °F 21.2 °F 26.6 °F 93% 29.50 in 10.0 mi SSW 6.9 mph - N/A   Overcast
1:55 AM 28.4 °F 21.2 °F 26.6 °F 93% 29.49 in 10.0 mi SSW 6.9 mph - N/A   Overcast
2:15 AM 26.6 °F 20.0 °F 24.8 °F 93% 29.48 in 10.0 mi South 5.8 mph - N/A   Scattered Clouds
2:35 AM 23.0 °F 13.1 °F 21.2 °F 93% 29.49 in 7.0 mi SW 9.2 mph - N/A   Scattered Clouds
2:55 AM 26.6 °F 19.1 °F 23.0 °F 86% 29.48 in 7.0 mi SW 6.9 mph - N/A   Mostly Cloudy
3:15 AM 26.6 °F 19.1 °F 24.8 °F 93% 29.48 in 7.0 mi SW 6.9 mph - N/A   Overcast
3:35 AM 26.6 °F 19.1 °F 26.6 °F 100% 29.47 in 7.0 mi West 6.9 mph - N/A   Overcast
3:55 AM 28.4 °F 19.7 °F 26.6 °F 93% 29.48 in 7.0 mi West 9.2 mph - N/A   Overcast
4:15 AM 28.4 °F 21.2 °F 26.6 °F 93% 29.48 in 7.0 mi WSW 6.9 mph - N/A   Overcast
4:35 AM 28.4 °F 21.2 °F 26.6 °F 93% 29.49 in 7.0 mi West 6.9 mph - N/A   Overcast
4:55 AM 30.2 °F 22.6 °F 28.4 °F 93% 29.49 in 2.0 mi West 8.1 mph - N/A   Overcast
5:15 AM 30.2 °F 21.9 °F 30.2 °F 100% 29.49 in 1.8 mi West 9.2 mph - N/A   Overcast
5:35 AM 32.0 °F 20.8 °F 32.0 °F 100% 29.50 in 1.2 mi West 17.3 mph 23.0 mph N/A   Overcast
5:55 AM 26.6 °F 11.1 °F 24.8 °F 93% 29.52 in 4.0 mi NNW 26.5 mph 33.4 mph N/A   Overcast
6:15 AM 24.8 °F 10.0 °F 23.0 °F 93% 29.54 in 7.0 mi NW 21.9 mph 28.8 mph N/A   Overcast
6:35 AM 24.8 °F 9.3 °F 21.2 °F 86% 29.55 in 7.0 mi NW 24.2 mph 29.9 mph N/A   Overcast
6:55 AM 23.0 °F 6.6 °F 21.2 °F 93% 29.55 in 10.0 mi NW 25.3 mph 33.4 mph N/A   Overcast
7:15 AM 23.0 °F 5.4 °F 19.4 °F 86% 29.56 in 10.0 mi NW 29.9 mph 34.5 mph N/A   Overcast
7:35 AM 21.2 °F 3.5 °F 17.6 °F 86% 29.57 in 10.0 mi NNW 27.6 mph 35.7 mph N/A   Overcast
7:55 AM 19.4 °F 1.4 °F 17.6 °F 93% 29.59 in 10.0 mi NNW 26.5 mph 35.7 mph N/A   Overcast
8:15 AM 17.6 °F -1.6 °F 14.0 °F 86% 29.60 in 10.0 mi NNW 28.8 mph 36.8 mph N/A   Overcast
8:35 AM 17.6 °F -1.0 °F 14.0 °F 86% 29.62 in 7.0 mi NW 26.5 mph 33.4 mph N/A   Overcast
8:55 AM 15.8 °F -5.2 °F 12.2 °F 86% 29.62 in 5.0 mi NW 33.4 mph 41.4 mph N/A Snow Light Snow
9:15 AM 14.0 °F -8.0 °F 10.4 °F 86% 29.64 in 10.0 mi NW 34.5 mph 42.6 mph N/A   Overcast
9:35 AM 12.2 °F -9.9 °F 8.6 °F 85% 29.65 in 5.0 mi NW 32.2 mph 41.4 mph N/A Snow Light Snow
9:55 AM 12.2 °F -8.9 °F 6.8 °F 79% 29.67 in 5.0 mi NNW 28.8 mph 42.6 mph N/A   Haze
10:15 AM 12.2 °F -9.9 °F 6.8 °F 79% 29.69 in 1.8 mi NW 32.2 mph 39.1 mph N/A Snow Light Snow
10:35 AM 10.4 °F -11.4 °F 5.0 °F 79% 29.69 in 7.0 mi NNW 28.8 mph 40.3 mph N/A   Overcast
10:55 AM 10.4 °F -11.0 °F 5.0 °F 79% 29.70 in 7.0 mi NNW 27.6 mph 34.5 mph N/A   Overcast
11:15 AM 10.4 °F -12.0 °F 5.0 °F 79% 29.72 in 7.0 mi NNW 31.1 mph 44.9 mph N/A   Overcast
11:35 AM 10.4 °F -12.3 °F 5.0 °F 79% 29.72 in 2.0 mi NW 32.2 mph 39.1 mph N/A Snow Light Snow
12:15 PM 10.4 °F -11.0 °F 5.0 °F 79% 29.74 in 2.5 mi NW 27.6 mph 36.8 mph N/A Snow Light Snow
12:35 PM 10.4 °F -12.3 °F 3.2 °F 73% 29.74 in 4.0 mi NW 32.2 mph 42.6 mph N/A Snow Light Snow
12:55 PM 8.6 °F -16.0 °F 3.2 °F 79% 29.74 in 5.0 mi NW 36.8 mph 43.7 mph N/A   Haze
1:15 PM 8.6 °F -14.1 °F 3.2 °F 79% 29.74 in 3.0 mi NW 29.9 mph 42.6 mph N/A   Haze
1:35 PM 8.6 °F -15.1 °F 1.4 °F 73% 29.75 in 10.0 mi NNW 33.4 mph 41.4 mph N/A   Scattered Clouds
1:55 PM 8.6 °F -14.1 °F 1.4 °F 73% 29.76 in 1.5 mi NNW 29.9 mph 40.3 mph N/A   Haze
2:15 PM 6.8 °F -18.2 °F 1.4 °F 79% 29.78 in 1.8 mi NW 35.7 mph 39.1 mph N/A   Haze
2:35 PM 5.0 °F -18.7 °F -0.4 °F 78% 29.78 in 10.0 mi NNW 28.8 mph 40.3 mph N/A   Scattered Clouds
3:15 PM 5.0 °F -20.1 °F -0.4 °F 78% 29.81 in 3.0 mi NW 33.4 mph 42.6 mph N/A   Haze
3:35 PM 3.2 °F -20.7 °F -0.4 °F 85% 29.81 in 3.0 mi NNW 27.6 mph 40.3 mph N/A   Haze
4:15 PM 3.2 °F -22.2 °F -4.0 °F 72% 29.83 in 7.0 mi NW 32.2 mph 40.3 mph N/A   Overcast
4:35 PM 3.2 °F -20.7 °F -4.0 °F 72% 29.84 in 7.0 mi NNW 27.6 mph 38.0 mph N/A   Overcast
4:55 PM 1.4 °F -22.7 °F -4.0 °F 78% 29.84 in 7.0 mi NW 26.5 mph 34.5 mph N/A   Mostly Cloudy
5:35 PM 1.4 °F -22.3 °F -4.0 °F 78% 29.87 in 2.0 mi NNW 25.3 mph 35.7 mph N/A Snow Light Snow
6:15 PM 1.4 °F -21.0 °F -4.0 °F 78% 29.89 in 1.8 mi NNW 21.9 mph 34.5 mph N/A Snow Light Snow
6:55 PM -0.4 °F -26.4 °F -5.8 °F 78% 29.91 in 7.0 mi NNW 29.9 mph 36.8 mph N/A   Overcast
7:35 PM -0.4 °F -25.6 °F -5.8 °F 78% 29.92 in 5.0 mi NNW 27.6 mph 38.0 mph N/A   Haze
7:55 PM -2.2 °F -26.7 °F -7.6 °F 78% 29.93 in 5.0 mi NNW 24.2 mph 32.2 mph N/A   Haze
8:15 PM -2.2 °F -26.2 °F -7.6 °F 78% 29.93 in 4.0 mi NNW 23.0 mph 31.1 mph N/A   Haze
8:35 PM -4.0 °F -28.1 °F -7.6 °F 85% 29.93 in 5.0 mi NNW 21.9 mph 28.8 mph N/A   Haze
8:55 PM -4.0 °F -29.1 °F -7.6 °F 85% 29.93 in 3.0 mi NNW 24.2 mph 31.1 mph N/A   Overcast
9:15 PM -4.0 °F -29.1 °F -7.6 °F 85% 29.94 in 2.5 mi NNW 24.2 mph 32.2 mph N/A   Overcast
9:55 PM -4.0 °F -28.6 °F -7.6 °F 85% 29.96 in 3.0 mi NW 23.0 mph 34.5 mph N/A   Haze
10:15 PM -4.0 °F -28.6 °F -7.6 °F 85% 29.96 in 2.5 mi NW 23.0 mph 31.1 mph N/A   Overcast
10:35 PM -4.0 °F -28.6 °F -7.6 °F 85% 29.97 in 3.0 mi NNW 23.0 mph 26.5 mph N/A   Overcast
11:15 PM -2.2 °F -26.7 °F -5.8 °F 85% 29.98 in 3.0 mi NW 24.2 mph 29.9 mph N/A   Overcast
11:55 PM -2.2 °F -26.7 °F -5.8 °F 85% 30.00 in 3.0 mi NW 24.2 mph - N/A   Overcast